Regional Weather Roundup
Issued by NWS

Home | Current Version | Previous Version | Text Only | Print | Product List | Glossary Off
Versions: 1 2 3 4 5 6 7 8 9 10 11 12 13 14 15 16 17 18 19 20 21 22 23 24 25 26 27 28 29 30 31 32 33 34 35 36 37 38 39 40 41 42 43 44 45 46 47 48 49

000
ASUS45 KBOU 301407
RWRCO

WEATHER ROUNDUP FOR COLORADO
NATIONAL WEATHER SERVICE DENVER/BOULDER CO
700 AM MST FRI JAN 30 2015

NOTE: "FAIR" INDICATES FEW OR NO CLOUDS BELOW 12000 FEET WITH NO
SIGNIFICANT WEATHER AND/OR OBSTRUCTIONS TO VISIBILITY.

COZ001>005-013-030-031-301500-
...NORTHWEST COLORADO...

CITY           SKY/WX    TMP DP  RH WIND       PRES   REMARKS
CRAIG          CLOUDY    33  31  92 NE6       30.23S WCI  28
HAYDEN         CLOUDY    30  25  80 SE8       30.23S WCI  23
MEEKER         CLOUDY    32  30  92 CALM      30.20F FOG
MOUNT WERNER   NOT AVBL
STEAMBOAT SPGS CLOUDY    28  24  84 CALM      30.23F
WALDEN         CLOUDY    27  21  80 CALM      30.24S
$$

COZ006>008-011-301500-
...WEST CENTRAL VALLEYS...

CITY           SKY/WX    TMP DP  RH WIND       PRES   REMARKS
GRAND JUNCTION CLOUDY    36  33  89 CALM      30.17F
MONTROSE       CLOUDY    39  31  72 SE5       30.21S
EAGLE          CLEAR     30  28  93 CALM      30.26F
RIFLE          CLOUDY    32  28  85 E5        30.20F WCI  27
DELTA          CLOUDY    40  32  74 CALM      30.19F
NUCLA          DRZL/FOG  37  36  93 CALM      30.21F VSB 3/4
$$

COZ017>023-064>068-301500-
...SOUTHWEST COLORADO...

CITY           SKY/WX    TMP DP  RH WIND       PRES   REMARKS
DURANGO        LGT SNOW  30  29  96 E8        30.24F FOG     WCI  22
CORTEZ         CLOUDY    36  32  85 NW3       30.18F
PAGOSA SPRINGS LGT SNOW  31  31 100 CALM      30.27F
TELLURIDE      CLOUDY    31  31 100 CALM      30.20F FOG
WOLF CREEK PAS NOT AVBL
$$

COZ009-010-012-014-032>034-037-058>063-301500-
...CENTRAL COLORADO...

CITY           SKY/WX    TMP DP  RH WIND       PRES   REMARKS
ASPEN          CLOUDY    26  21  81 S3        30.21F
BUENA VISTA    CLOUDY    27  22  80 CALM      30.27F
COPPER MTN     CLOUDY    27  19  74 CALM      30.28S
BERTHOUD PASS  CLOUDY    19  12  73 NW10      30.30S WCI   8
COTTONWOOD PAS CLOUDY    28  23  80 CALM      30.27S
GUNNISON       CLOUDY    27  21  80 CALM      30.27F
KREMMLING      CLOUDY    23  21  93 CALM      30.28F
LEADVILLE      CLOUDY    17  14  88 NE5       30.25F WCI  10
MONARCH PASS   LGT SNOW  23  21  93 MISG      30.38S
SALIDA         CLOUDY    31  26  79 NW6       30.34S WCI  26
SUNLIGHT       CLOUDY    28  27  93 CALM      30.27S
WILKERSON PASS CLOUDY   N/A N/A N/A W5        30.30R
$$

COZ069>075-301500-
...SAN LUIS VALLEY/SANGRE DE CRISTO MOUNTAINS...

CITY           SKY/WX    TMP DP  RH WIND       PRES   REMARKS
ALAMOSA        LGT SNOW  28  26  92 SE6       30.28S FOG     WCI  22
LA VETA PASS   CLOUDY    21  19  93 MISG      30.26F
SAGUACHE       LGT SNOW  30  28  93 SE9       30.30S WCI  22
$$

COZ035-036-038>040-301500-
...NORTHERN COLORADO FRONT RANGE...

CITY           SKY/WX    TMP DP  RH WIND       PRES   REMARKS
DENVER INTL AP CLOUDY    31  23  72 SW6       30.20S WCI  25
DMNS CITY PARK   N/A     34  24  66 SE2       30.20F
AURORA         MOCLDY    32  25  75 S3        30.21S
FRONT RANGE AP NOT AVBL
ERIE MUNI ARPT CLOUDY    31  28  89 CALM      30.20S
BOULDER MUN AP CLOUDY    34  25  69 CALM      30.20S
CENTENNIAL     CLOUDY    34  26  72 CALM      30.20S
BROOMFIELD     MOCLDY    32  23  69 CALM      30.20S
FORT COLLINS   CLOUDY    28  21  74 N5        30.21F WCI  23
LONGMONT       CLOUDY    31  27  85 CALM      30.23S
$$

COZ041-046-047-076>085-087-088-301500-
...PIKES PEAK/PALMER DIVIDE AND SOUTHERN FOOTHILLS...

CITY           SKY/WX    TMP DP  RH WIND       PRES   REMARKS
COLO. SPRINGS  CLOUDY    29  24  82 E3        30.24F
A. F. ACADEMY  CLOUDY    28  22  78 NW2       30.22F
ELLICOTT       CLOUDY   N/A N/A N/A S7        30.23S
FALCON         CLOUDY    27  24  89 CALM      30.24S
FORT CARSON    CLOUDY    29  24  83 N5        30.23S WCI  24
LIMON          CLOUDY    31  24  75 SE3       30.24S
MONUMENT HILL  CLOUDY    30  23  74 S12       30.19F WCI  21
TRINIDAD       CLOUDY    38  25  59 CALM      30.28F
$$

COZ042>045-048>051-090-091-301500-
...NORTHEAST COLORADO...

CITY           SKY/WX    TMP DP  RH WIND       PRES   REMARKS
GREELEY ARPT   CLOUDY    27  18  69 NW7       30.20S WCI  19
AKRON          CLOUDY    32  24  72 S12       30.21F WCI  23
BURLINGTON     CLOUDY    35  25  66 S21       30.26F WCI  24
WRAY           CLOUDY    33  26  75 CALM      30.28S
STERLING       CLOUDY    32  25  74 S6        30.22F WCI  26
HOLYOKE        NOT AVBL
FORT MORGAN    CLOUDY    29  23  78 E5        30.21F WCI  24
$$

COZ086-089-092>099-301500-
...SOUTHEAST COLORADO...

CITY           SKY/WX    TMP DP  RH WIND       PRES   REMARKS
PUEBLO         CLOUDY    31  25  78 CALM      30.25F
LA JUNTA       CLOUDY    43  31  62 S7        30.28S
LAMAR          CLOUDY    40  28  62 S8        30.30S
SPRINGFIELD      N/A     37  28  70 S15       30.33F
$$



USA.gov is the U.S. government's official web portal to all federal, state and local government web resources and services.